Theta_e
344 342 340 333 332 332 329 325 324 327 325 324 324 323 323 325 326 328 327 343 342 343 340 335 334 335 337 339 341 344 348 350 350 348 348 347 349 350 350 349 348 346 346
344 340 333 333 333 332 329 326 323 326 325 323 322 323 323 323 325 328 329 329 346 344 342 341 338 336 335 338 339 341 342 347 349 349 348 347 348 350 350 349 348 348 346
334 338 334 334 333 332 329 326 325 325 323 321 319 320 321 322 324 325 326 325 333 344 343 342 341 340 338 336 338 339 340 344 347 348 348 348 348 348 349 349 348 348 347
342 338 334 332 334 332 328 326 324 322 319 318 319 319 320 322 322 324 324 326 328 328 339 343 341 340 339 336 334 338 339 340 345 345 347 348 348 346 348 348 348 348 347
336 337 334 334 335 330 327 326 323 321 317 318 316 317 319 321 322 324 325 328 326 326 326 335 339 338 340 338 338 337 338 338 343 344 345 346 347 347 347 347 347 346 346
336 337 333 334 333 326 325 324 322 322 320 318 316 315 316 320 321 323 322 326 326 326 325 327 327 324 334 338 339 339 339 338 342 343 343 343 346 346 346 346 348 347 346
336 338 334 332 329 326 325 324 321 319 318 317 313 312 314 316 318 319 322 325 324 323 324 327 325 328 329 337 339 340 336 335 339 339 341 340 341 344 345 344 346 347 346
337 334 335 330 330 324 321 320 320 316 315 317 312 310 306 310 317 317 319 318 319 321 321 321 325 328 328 330 331 337 333 332 336 337 339 340 340 340 342 344 343 345 345
336 335 333 331 326 324 318 318 317 316 311 313 315 311 305 305 308 315 314 316 318 318 321 323 325 327 329 328 330 329 331 333 335 336 337 340 342 339 339 342 341 342 343
335 332 332 327 325 322 320 319 318 316 315 309 312 314 313 311 304 303 312 314 316 316 319 321 322 324 325 327 329 330 330 332 332 333 335 336 338 341 340 339 340 337 341
332 329 326 325 323 321 320 319 317 316 316 312 311 310 310 310 311 307 303 308 313 312 316 315 319 322 324 325 326 327 329 329 328 329 332 334 335 336 339 342 340 337 335
328 329 324 324 323 321 320 317 317 316 314 313 312 312 310 307 305 306 304 303 304 308 312 313 318 320 322 323 328 328 327 328 326 326 327 331 334 336 338 340 340 338 334
324 327 325 324 320 320 318 317 316 314 312 312 311 311 312 310 311 309 305 303 303 307 308 311 316 319 322 323 324 326 326 324 324 323 324 326 331 335 337 339 340 334 336
321 326 322 321 319 319 317 317 314 312 312 312 312 312 311 311 311 309 307 304 303 303 307 308 316 318 319 321 323 323 323 323 321 320 321 321 324 328 330 333 335 334 335
320 320 319 318 317 317 316 313 312 313 313 313 312 312 311 310 312 311 310 308 305 300 301 308 310 314 316 316 318 316 317 322 320 319 319 319 320 321 322 323 324 328 330
320 318 317 316 316 314 311 313 313 314 313 312 312 312 312 312 312 311 310 309 308 305 302 307 309 312 312 312 315 313 315 317 317 317 316 316 316 318 319 319 319 320 321
317 316 315 314 312 310 314 313 313 313 311 311 312 311 311 312 310 310 310 309 308 307 304 305 307 308 307 307 308 310 311 311 313 315 314 313 313 314 314 315 317 318 318
315 314 313 310 309 309 313 312 312 312 311 310 310 311 310 312 311 312 309 308 307 308 306 301 304 304 305 306 306 306 308 310 310 313 312 312 312 311 311 311 312 312 313
310 309 309 310 308 310 312 312 313 311 311 311 311 311 311 312 309 310 310 308 308 308 306 303 302 304 304 305 304 305 306 306 309 312 311 310 310 310 309 309 308 307 307
312 312 310 308 309 312 312 311 312 311 309 309 309 309 310 311 310 311 310 308 308 305 304 302 301 301 302 304 304 301 301 304 304 307 309 309 309 309 308 308 307 306 305
311 310 310 310 312 313 306 307 308 308 308 308 309 310 312 312 312 312 310 309 306 304 303 301 300 300 300 300 300 302 300 302 302 304 303 304 304 304 304 305 306 305 303
312 313 312 313 313 309 302 303 307 308 309 309 309 312 313 314 313 313 312 309 307 303 301 300 298 297 297 298 301 300 300 299 297 304 303 301 302 300 300 300 303 302 302
313 313 313 312 311 310 302 302 305 309 310 311 312 308 309 311 312 311 310 309 308 307 305 301 298 297 297 298 300 298 298 299 300 305 302 297 299 297 299 300 302 302 301
312 313 313 313 313 306 301 300 303 310 313 312 311 309 307 307 307 307 306 305 304 304 303 302 301 299 300 301 302 304 305 303 303 304 304 296 299 296 298 298 301 301 301
313 314 314 313 312 310 300 300 304 315 312 312 310 308 307 305 302 303 303 301 300 301 304 303 302 300 299 300 303 304 303 300 298 299 302 299 298 297 298 297 298 300 300
314 314 313 313 309 312 301 299 303 313 313 311 308 308 304 304 301 301 303 300 298 299 300 300 300 300 300 302 303 310 308 299 298 297 300 298 298 295 291 295 294 295 294
Wind_Speed
5 3 3 4 4 3 4 6 7 5 6 7 8 10 12 11 10 5 3 15 15 13 11 11 10 10 7 6 6 7 6 7 9 12 17 19 18 17 17 17 16 16 15
3 4 5 4 4 4 5 6 7 5 5 7 8 9 10 10 10 7 4 5 10 14 14 14 14 14 12 9 6 6 8 8 9 11 11 16 18 19 19 19 19 18 17
3 4 3 4 4 4 6 7 6 5 5 8 11 12 11 12 10 9 8 5 4 14 16 16 15 12 12 11 9 8 8 9 9 10 12 13 17 19 20 20 20 20 19
1 2 3 4 4 4 4 4 5 5 7 9 8 9 9 10 13 10 7 6 4 0 9 12 10 11 12 14 14 12 11 10 10 9 11 13 16 19 20 20 20 20 20
2 4 3 4 5 4 4 5 6 6 8 7 8 9 10 10 8 10 8 5 4 4 3 2 7 10 11 14 17 17 16 13 11 10 10 12 14 15 17 19 19 20 21
4 4 4 5 4 5 5 6 7 7 7 5 8 10 10 10 10 8 8 7 5 3 3 2 5 5 12 15 17 21 19 15 12 9 9 8 12 14 15 17 18 19 20
4 2 3 3 5 5 5 7 8 6 6 5 7 7 9 12 13 9 9 2 6 5 4 3 3 4 7 11 15 21 18 15 11 11 9 9 8 10 14 15 17 18 19
4 4 2 3 3 4 5 6 6 4 5 4 5 7 6 8 5 6 5 4 4 4 5 6 4 5 5 4 6 4 8 9 13 14 11 10 10 11 9 9 14 16 18
2 3 1 3 3 2 4 5 6 6 6 5 6 2 4 3 9 4 7 7 4 5 6 7 7 7 6 5 5 3 5 6 5 8 9 9 12 13 12 10 7 11 17
4 4 3 4 4 3 4 4 5 5 4 5 4 4 2 4 3 7 4 5 5 6 5 5 5 6 8 5 2 8 11 9 7 6 7 8 9 12 14 12 9 7 9
3 4 6 4 5 3 4 4 6 6 4 3 3 3 3 4 5 5 6 5 5 5 4 6 5 5 8 6 2 5 10 11 7 10 9 8 10 13 14 14 14 11 6
5 5 6 4 3 5 3 5 6 5 5 5 4 5 5 3 3 2 2 4 5 5 6 6 3 5 6 6 4 11 8 7 13 11 11 9 9 14 15 15 15 13 6
3 2 5 4 4 4 5 6 5 6 5 5 5 5 5 5 4 3 2 4 3 4 4 5 3 4 5 4 8 11 10 14 13 15 17 20 18 6 16 14 14 11 6
6 4 5 6 6 5 6 4 4 5 5 5 6 5 4 3 3 4 4 4 2 2 3 5 5 6 6 4 13 15 8 17 16 20 22 25 24 24 23 14 9 11 13
7 7 7 6 7 5 5 5 6 6 6 6 6 5 4 4 3 4 4 2 2 0 1 4 4 6 5 6 12 10 10 19 24 24 24 24 27 27 29 29 30 23 13
8 9 8 7 6 7 7 7 5 7 6 5 4 6 5 4 4 3 3 3 3 3 1 3 4 4 6 8 11 10 13 21 24 27 29 28 27 26 27 30 33 31 29
10 10 8 7 8 9 7 6 6 6 6 7 5 5 7 5 3 3 2 2 3 3 2 3 4 6 6 10 7 6 8 10 12 27 28 28 26 26 28 28 27 28 26
8 8 9 9 8 8 9 7 6 5 6 6 5 4 4 3 5 5 5 5 3 4 2 5 3 3 8 8 7 9 8 8 12 23 27 27 26 25 25 25 25 25 24
8 7 6 7 8 9 10 7 4 5 6 7 7 6 5 4 2 3 5 4 4 4 5 6 4 4 6 3 8 8 7 8 11 23 26 26 26 25 25 25 24 25 24
8 7 7 4 7 10 6 8 7 5 6 6 6 7 7 3 3 0 5 6 6 7 7 9 5 5 5 4 4 6 7 6 11 10 19 20 21 24 23 23 24 24 22
6 5 6 6 6 4 7 8 8 6 6 6 8 8 6 7 7 2 6 8 10 8 7 8 5 7 5 3 6 4 9 7 6 4 8 9 9 9 10 19 21 21 21
9 7 7 5 5 6 11 11 8 6 6 7 7 9 10 9 6 11 15 16 12 12 9 6 5 7 5 2 1 2 7 4 6 3 9 11 8 8 7 8 18 18 17
7 9 6 5 9 8 12 10 11 5 7 4 7 8 9 9 12 10 15 15 14 13 11 9 11 6 4 2 2 3 3 4 7 9 10 10 7 9 7 8 14 14 14
5 6 6 6 7 8 11 10 12 6 3 9 11 9 10 11 12 13 13 13 11 10 10 7 8 7 5 2 1 2 5 6 7 7 7 10 7 7 5 4 12 12 11
6 6 6 7 7 7 12 13 12 5 11 11 11 10 11 12 15 18 14 13 12 11 12 13 9 8 4 5 6 4 3 6 5 7 6 8 6 7 5 4 4 8 8
5 4 5 7 9 8 13 13 10 3 9 9 9 10 14 12 14 14 13 12 11 9 10 9 4 0 5 8 13 6 2 7 5 6 5 7 7 6 4 3 4 4 4
Wind_Direction
33 350 358 317 0 329 351 354 312 312 328 304 307 310 307 301 292 277 261 180 195 196 179 190 201 213 233 257 270 294 292 264 247 236 229 219 210 208 206 202 202 195 194
101 357 346 359 314 5 7 322 311 310 322 304 302 308 305 296 289 274 262 255 238 191 191 200 210 217 226 237 250 264 280 276 258 252 237 228 219 213 210 210 206 200 195
17 71 304 327 342 9 340 311 328 324 324 343 327 317 311 301 302 311 272 244 200 196 211 213 214 221 237 249 257 254 270 268 261 253 244 233 230 224 215 213 210 206 198
21 90 345 313 4 330 321 312 312 349 345 325 304 303 292 289 294 295 287 278 231 317 201 217 220 232 245 257 264 257 260 268 250 255 250 239 236 229 225 218 216 212 205
328 37 337 336 329 310 313 319 3 338 317 308 309 308 329 317 312 308 302 304 258 251 245 321 224 232 246 262 255 255 254 250 244 246 254 245 236 229 222 225 222 220 218
5 47 350 298 351 325 324 351 323 307 294 314 328 326 311 315 313 306 290 312 294 348 356 14 347 303 281 272 257 245 250 252 235 241 254 256 241 229 225 224 222 224 220
7 335 265 350 340 323 339 330 313 339 327 339 323 304 307 304 291 294 281 337 2 10 354 61 15 360 310 310 303 243 243 252 244 254 251 248 253 246 229 224 225 224 221
222 277 42 337 320 358 339 320 351 319 315 322 301 309 301 308 313 306 17 24 26 358 352 325 8 331 308 313 314 265 254 264 261 258 255 237 233 246 243 235 232 224 220
266 252 288 258 65 341 332 340 316 322 308 310 299 300 313 312 346 304 346 10 20 20 3 337 348 335 323 318 21 356 16 350 319 286 268 253 229 234 240 239 254 237 220
334 312 272 72 42 39 295 296 333 308 294 290 315 286 244 289 290 313 351 345 26 358 349 359 339 326 319 330 4 67 36 33 356 346 318 300 283 247 238 231 217 235 241
16 341 52 46 57 322 306 337 300 294 306 277 277 301 284 265 249 241 293 316 344 2 6 345 339 334 328 318 66 59 53 41 12 8 347 316 281 261 246 225 220 221 237
352 7 44 43 349 298 338 304 314 321 308 283 280 270 257 245 286 308 301 315 325 319 344 310 1 345 336 329 80 73 72 75 48 33 26 7 315 259 241 224 215 222 222
323 355 11 345 330 349 315 307 323 306 290 274 274 277 267 239 232 244 240 264 258 308 304 297 358 3 332 40 60 71 80 78 62 56 48 43 26 326 222 204 189 182 172
339 358 360 340 349 333 305 325 310 284 271 271 280 275 259 243 232 216 227 238 258 261 281 265 52 29 21 32 80 67 73 90 74 71 60 55 50 55 62 75 180 168 153
330 356 330 360 337 312 337 306 277 285 287 280 269 262 249 257 227 226 226 218 178 268 329 26 16 27 69 54 76 68 64 84 85 72 69 63 59 59 70 71 68 69 118
347 340 351 335 326 333 302 283 292 287 290 274 264 266 261 253 248 209 201 200 186 205 180 19 18 51 64 75 56 64 74 75 77 80 75 70 64 61 66 72 70 68 68
353 347 338 342 338 310 297 303 289 288 287 282 282 253 260 241 222 207 186 185 187 169 179 53 46 70 70 72 58 54 61 68 68 71 73 70 69 67 65 67 75 83 81
345 342 354 343 321 307 311 301 305 300 301 310 316 305 278 286 264 209 178 193 179 156 153 112 63 72 74 57 70 64 62 66 74 74 74 71 69 68 68 70 74 77 75
353 348 315 341 320 302 302 299 353 353 356 337 334 316 298 258 253 222 159 168 136 135 104 118 98 87 85 63 77 52 60 61 74 74 76 76 73 72 73 71 71 69 70
324 320 331 317 297 302 334 358 26 8 355 344 320 301 290 289 190 328 136 127 116 111 117 101 101 104 84 57 78 81 86 79 82 80 80 82 81 77 77 77 78 79 76
357 349 316 295 296 344 24 359 356 334 335 321 309 305 305 209 173 203 135 129 122 119 116 118 108 103 95 84 105 138 98 102 98 110 106 99 92 77 71 74 81 82 80
359 358 334 357 26 43 12 5 358 328 323 323 344 15 15 119 112 104 120 123 138 134 125 115 109 103 93 80 282 104 125 136 116 220 95 86 83 84 79 75 87 83 82
346 356 26 6 53 30 6 359 329 314 298 311 35 37 41 58 81 94 97 104 105 108 118 133 124 112 113 179 56 35 38 73 94 107 101 98 96 89 87 86 90 93 90
5 349 16 40 54 34 4 342 331 318 48 65 69 56 63 66 80 87 86 85 84 91 102 101 118 144 132 86 279 204 117 83 87 95 111 107 101 97 96 82 88 86 88
7 20 39 41 46 39 360 351 354 16 75 67 68 62 70 77 77 90 91 89 85 81 90 103 101 100 122 233 273 309 118 105 98 110 105 102 119 120 116 112 96 98 103
14 36 43 54 33 37 10 356 7 53 86 86 76 74 68 87 84 89 98 100 97 109 117 115 106 110 248 256 259 244 137 118 111 104 122 111 130 147 98 119 138 149 136